030  
ASUS43 KLMK 080210  
RWRKY  
KENTUCKY REGIONAL WEATHER ROUNDUP  
NATIONAL WEATHER SERVICE LOUISVILLE KY  
1000 PM EDT TUE JUL 07 2015  
 
NOTE "FAIR" INDICATES FEW OR NO CLOUDS BELOW 12,000 FEET  
WITH NO SIGNIFICANT WEATHER AND/OR S TO VISIBILITY
.  
 
KYZ001>023-026-027-061>063-070>075-080300-  
WESTERN AND SOUTH CENTRAL KENTUCKY  
 
CITY SKY/WX TMP DP RH WIND PRES REMARKS
 
PADUCAH CLOUDY 73 70 90 SW6 30.00S  
HENDERSON CLOUDY 73 70 88 SW3 29.98R  
OWENSBORO LGT RAIN 73 71 93 SW6 30.01R  
HOPKINSVILLE TSTM 72 70 91 W8 30.06R  
BOWLING GREEN TSTM 72 69 90 SW6 30.06R FOG  
GLASGOW RAIN 70 70 99 CALM 30.06F  

 
 
KYZ024-025-028>034-038-045-046-053-080300-  
NORTH CENTRAL KENTUCKY  
 
CITY SKY/WX TMP DP RH WIND PRES REMARKS
 
LOUISVILLE/SDF CLOUDY 74 72 93 SE6 29.99R  
LOUISVILLE/LOU CLOUDY 75 73 93 S3 30.00R  
FORT KNOX LGT RAIN 73 72 94 S7 30.00R  

 
 
KYZ035>037-039>044-047>052-055>060-089>105-080300-  
NORTHEAST KENTUCKY  
 
CITY SKY/WX TMP DP RH WIND PRES REMARKS
 
LEXINGTON CLOUDY 71 68 90 S5 30.03S  
COVINGTON LGT RAIN 72 70 94 SW8 30.00R FOG  
FRANKFORT CLOUDY 72 68 87 S8 30.01R  

 
 
KYZ054-064>069-076>088-106>120-080300-  
SOUTHEAST KENTUCKY  
 
CITY SKY/WX TMP DP RH WIND PRES REMARKS
 
JACKSON LGT RAIN 70 67 90 NW8 30.09R FOG  
LONDON LGT RAIN 80 67 64 SW5 30.07R  
SOMERSET RAIN 72 66 83 N3 30.08R  
MIDDLESBORO MOCLDY 74 73 94 CALM 30.10R  
MONTICELLO CLOUDY 77 71 81 SW10 30.10R  

 
 
CLICK HERE TO GO TO PREVIOUS BULLETINS.

The Nexlab KY Page Main Text Page